LPAZ Airport Information

Runway Information
Runway 04 Length 4345 ft width 148 ft
Elevation 282 ft Threshold 0 ft Heading 28
Runway 22 Length 4345 ft Width 148 ft
Elevation 299 ft Threshold 0 ft Heading 208
Runway 15 Length 6004 ft width 148 ft
Elevation 279 ft Threshold 0 ft Heading 136
Runway 33 Length 6004 ft Width 148 ft
Elevation 299 ft Threshold 0 ft Heading 316
Runway 18 Length 10000 ft width 197 ft
Elevation 283 ft Threshold 0 ft Heading 171
Runway 36 Length 10000 ft Width 197 ft
Elevation 283 ft Threshold 0 ft Heading 351
Airport Frequencies
Type A/G Name A/G Frequency 301.6 MHZ
Type A/G Name A/G Frequency 1130.9 MHZ
Type ACC Name CON Frequency 132.15 MHZ
Type APP Name APP Frequency 119 MHZ
Type RDO Name RDO Frequency 127.9 MHZ
Type TWR Name TWR Frequency 118.1 MHZ
Airport Navaids
Type NDB Name Santa Maria Frequency 323 KHZ
Type VOR-DME Name Santa Maria Frequency 113700 KHZ
Airport Weather Information & NOTAM
ADDS - METARS form results

(1109 UTC 17 July 2018)
 
METAR text: LPAZ 171100Z 03009KT 340V060 9999 FEW019 22/15 Q1028
Conditions at: LPAZ (SANTA MARIA ISLA, PT) observed 1100 UTC 17 July 2018
Temperature: 22.0°C (72°F)
Dewpoint: 15.0°C (59°F) [RH = 65%]
Pressure (altimeter): 30.35 inches Hg (1028.0 mb)
Winds: from the NNE (30 degrees) at 10 MPH (9 knots; 4.7 m/s)
Visibility: 6 or more miles (10+ km)
Ceiling: at least 12,000 feet AGL
Clouds: few clouds at 1900 feet AGL
Weather: no significant weather observed at this time

METAR text: LPAZ 171030Z 02009KT 9999 FEW019 22/15 Q1028
Conditions at: LPAZ (SANTA MARIA ISLA, PT) observed 1030 UTC 17 July 2018
Temperature: 22.0°C (72°F)
Dewpoint: 15.0°C (59°F) [RH = 65%]
Pressure (altimeter): 30.35 inches Hg (1028.0 mb)
Winds: from the NNE (20 degrees) at 10 MPH (9 knots; 4.7 m/s)
Visibility: 6 or more miles (10+ km)
Ceiling: at least 12,000 feet AGL
Clouds: few clouds at 1900 feet AGL
Weather: no significant weather observed at this time